• In Kazakhstan
  • List of Countries
  • For 7 days
  • Water Temperature
  • Satellite Maps
  • Weather Map
  • News
  • Weather Widgets
  • user-avatar
    Login

    Hourly Weather Annaba

    Today, 18 November, Sunday

    Time Temperature Precipitation Wind Pressure Humidity
    00:00 +15°C° 0.4 mm 2 mps 756 mmHg 87%
    01:00 +15°C° 0.4 mm 2 mps 756 mmHg 88%
    02:00 +15°C° 0.2 mm 2 mps 756 mmHg 88%
    03:00 +15°C° 0.2 mm 2 mps 755 mmHg 88%
    04:00 +15°C° 0.2 mm 2 mps 755 mmHg 88%
    05:00 +13°C° 0.1 mm 3 mps 755 mmHg 88%
    06:00 +13°C° 0.1 mm 3 mps 755 mmHg 88%
    07:00 +13°C° 0.1 mm 3 mps 755 mmHg 87%
    08:00 +16°C° 0.1 mm 2 mps 755 mmHg 81%
    09:00 +17°C° 0.1 mm 2 mps 756 mmHg 74%
    10:00 +19°C° 0.1 mm 2 mps 756 mmHg 68%
    11:00 +20°C° 0 mm 2 mps 756 mmHg 63%
    12:00 +22°C° 0 mm 1 mps 755 mmHg 59%
    13:00 +23°C° 0 mm 1 mps 755 mmHg 55%
    14:00 +21°C° 0 mm 2 mps 755 mmHg 57%
    15:00 +21°C° 0 mm 2 mps 754 mmHg 59%
    16:00 +20°C° 0 mm 2 mps 754 mmHg 61%
    17:00 +19°C° 0 mm 2 mps 754 mmHg 67%
    18:00 +18°C° 0 mm 3 mps 754 mmHg 72%
    19:00 +17°C° 0 mm 3 mps 754 mmHg 78%
    20:00 +17°C° 0 mm 3 mps 754 mmHg 77%
    21:00 +17°C° 0 mm 3 mps 754 mmHg 76%
    22:00 +17°C° 0 mm 3 mps 754 mmHg 75%
    23:00 +16°C° 0 mm 3 mps 754 mmHg 75%

    Tomorrow, 19 November, Monday

    Time Temperature Precipitation Wind Pressure Humidity
    00:00 +16°C° 0 mm 3 mps 753 mmHg 74%
    01:00 +16°C° 0 mm 3 mps 753 mmHg 73%
    02:00 +16°C° 0 mm 3 mps 752 mmHg 73%
    03:00 +16°C° 0 mm 3 mps 752 mmHg 73%
    04:00 +16°C° 0 mm 3 mps 751 mmHg 72%
    05:00 +15°C° 0 mm 4 mps 751 mmHg 72%
    06:00 +15°C° 0 mm 4 mps 751 mmHg 72%
    07:00 +15°C° 0 mm 4 mps 750 mmHg 72%
    08:00 +17°C° 0.1 mm 4 mps 750 mmHg 71%
    09:00 +18°C° 0.1 mm 4 mps 750 mmHg 69%
    10:00 +18°C° 0.1 mm 4 mps 750 mmHg 67%
    11:00 +20°C° 0 mm 5 mps 749 mmHg 60%
    12:00 +22°C° 0 mm 5 mps 749 mmHg 53%
    13:00 +24°C° 0 mm 6 mps 748 mmHg 45%
    14:00 +23°C° 0 mm 5 mps 748 mmHg 46%
    15:00 +23°C° 0 mm 5 mps 748 mmHg 47%
    16:00 +23°C° 0 mm 4 mps 747 mmHg 48%
    17:00 +21°C° 0.4 mm 5 mps 748 mmHg 54%
    18:00 +20°C° 0.4 mm 5 mps 748 mmHg 60%
    19:00 +17°C° 0.4 mm 5 mps 748 mmHg 66%
    20:00 +17°C° 0.2 mm 4 mps 749 mmHg 66%
    21:00 +17°C° 0.2 mm 4 mps 749 mmHg 66%
    22:00 +17°C° 0.2 mm 3 mps 749 mmHg 66%
    23:00 +17°C° 0 mm 4 mps 749 mmHg 64%

    Day after tomorrow, 20 November, Tuesday

    Time Temperature Precipitation Wind Pressure Humidity
    00:00 +15°C° 0 mm 4 mps 749 mmHg 63%
    01:00 +15°C° 0 mm 5 mps 749 mmHg 62%
    02:00 +15°C° 0 mm 5 mps 749 mmHg 62%
    03:00 +15°C° 0 mm 5 mps 749 mmHg 63%
    04:00 +15°C° 0 mm 5 mps 749 mmHg 63%
    05:00 +14°C° 0 mm 5 mps 749 mmHg 63%
    06:00 +14°C° 0 mm 5 mps 749 mmHg 62%
    07:00 +14°C° 0 mm 5 mps 749 mmHg 62%
    08:00 +16°C° 0 mm 5 mps 750 mmHg 59%
    09:00 +17°C° 0 mm 6 mps 750 mmHg 56%
    10:00 +19°C° 0 mm 6 mps 751 mmHg 53%
    11:00 +17°C° 0.4 mm 6 mps 751 mmHg 58%
    12:00 +17°C° 0.4 mm 6 mps 751 mmHg 64%
    13:00 +16°C° 0.4 mm 7 mps 752 mmHg 69%
    14:00 +17°C° 0.4 mm 6 mps 752 mmHg 67%
    15:00 +17°C° 0.4 mm 5 mps 752 mmHg 66%
    16:00 +18°C° 0.4 mm 4 mps 753 mmHg 64%
    17:00 +17°C° 0 mm 4 mps 753 mmHg 67%
    18:00 +17°C° 0 mm 3 mps 754 mmHg 69%
    19:00 +16°C° 0 mm 2 mps 754 mmHg 72%
    20:00 +16°C° 0 mm 3 mps 755 mmHg 71%
    21:00 +14°C° 0 mm 3 mps 755 mmHg 70%
    22:00 +14°C° 0 mm 3 mps 756 mmHg 69%
    23:00 +14°C° 0 mm 3 mps 756 mmHg 66%

    21 November, Wednesday

    Time Temperature Precipitation Wind Pressure Humidity
    00:00 +14°C° 0 mm 4 mps 756 mmHg 63%
    01:00 +14°C° 0 mm 4 mps 756 mmHg 61%
    02:00 +14°C° 0 mm 4 mps 756 mmHg 60%
    03:00 +14°C° 0 mm 4 mps 756 mmHg 59%
    04:00 +14°C° 0 mm 4 mps 756 mmHg 58%
    05:00 +14°C° 0 mm 4 mps 756 mmHg 58%
    06:00 +14°C° 0 mm 4 mps 757 mmHg 58%
    07:00 +14°C° 0 mm 4 mps 757 mmHg 58%
    08:00 +15°C° 0 mm 4 mps 758 mmHg 54%
    09:00 +18°C° 0 mm 4 mps 758 mmHg 50%
    10:00 +20°C° 0 mm 4 mps 759 mmHg 46%
    11:00 +21°C° 0 mm 4 mps 759 mmHg 44%
    12:00 +22°C° 0 mm 4 mps 759 mmHg 41%
    13:00 +23°C° 0 mm 4 mps 759 mmHg 39%
    14:00 +23°C° 0 mm 4 mps 759 mmHg 40%
    15:00 +22°C° 0 mm 4 mps 759 mmHg 42%
    16:00 +22°C° 0 mm 3 mps 759 mmHg 44%
    17:00 +20°C° 0 mm 3 mps 759 mmHg 50%
    18:00 +19°C° 0 mm 2 mps 760 mmHg 55%
    19:00 +18°C° 0 mm 1 mps 760 mmHg 61%
    20:00 +17°C° 0 mm 2 mps 761 mmHg 60%
    21:00 +17°C° 0 mm 2 mps 761 mmHg 60%
    22:00 +16°C° 0 mm 2 mps 761 mmHg 59%
    23:00 +16°C° 0 mm 2 mps 761 mmHg 58%

    22 November, Thursday

    Time Temperature Precipitation Wind Pressure Humidity
    00:00 +16°C° 0 mm 2 mps 761 mmHg 56%
    01:00 +16°C° 0 mm 2 mps 761 mmHg 55%
    02:00 +16°C° 0 mm 3 mps 761 mmHg 55%
    03:00 +16°C° 0 mm 3 mps 761 mmHg 54%
    04:00 +16°C° 0 mm 3 mps 761 mmHg 53%
    05:00 +16°C° 0 mm 3 mps 761 mmHg 53%
    06:00 +16°C° 0 mm 3 mps 761 mmHg 53%
    07:00 +16°C° 0 mm 3 mps 761 mmHg 53%
    08:00 +17°C° 0 mm 3 mps 761 mmHg 51%
    09:00 +19°C° 0 mm 3 mps 761 mmHg 49%
    10:00 +20°C° 0 mm 3 mps 761 mmHg 47%
    11:00 +21°C° 0 mm 3 mps 761 mmHg 44%
    12:00 +22°C° 0 mm 3 mps 760 mmHg 40%
    13:00 +24°C° 0 mm 3 mps 760 mmHg 37%
    14:00 +24°C° 0 mm 3 mps 759 mmHg 38%
    15:00 +24°C° 0 mm 2 mps 759 mmHg 39%
    16:00 +24°C° 0 mm 2 mps 759 mmHg 40%
    17:00 +23°C° 0 mm 2 mps 759 mmHg 41%
    18:00 +20°C° 0 mm 2 mps 760 mmHg 41%
    19:00 +19°C° 0 mm 3 mps 760 mmHg 42%
    20:00 +18°C° 0 mm 3 mps 760 mmHg 43%
    21:00 +18°C° 0 mm 3 mps 761 mmHg 44%
    22:00 +17°C° 0 mm 3 mps 761 mmHg 44%
    23:00 +17°C° 0 mm 3 mps 761 mmHg 45%

    23 November, Friday

    Time Temperature Precipitation Wind Pressure Humidity
    00:00 +17°C° 0 mm 3 mps 761 mmHg 46%
    01:00 +17°C° 0 mm 3 mps 761 mmHg 47%
    02:00 +16°C° 0 mm 3 mps 762 mmHg 50%
    03:00 +16°C° 0 mm 3 mps 762 mmHg 52%
    04:00 +16°C° 0 mm 3 mps 762 mmHg 55%
    05:00 +16°C° 0 mm 3 mps 762 mmHg 56%
    06:00 +15°C° 0 mm 2 mps 763 mmHg 58%
    07:00 +15°C° 0 mm 2 mps 763 mmHg 59%
    08:00 +18°C° 0 mm 1 mps 763 mmHg 56%
    09:00 +19°C° 0 mm 1 mps 764 mmHg 54%
    10:00 +21°C° 0 mm 1 mps 764 mmHg 51%
    11:00 +22°C° 0 mm 1 mps 764 mmHg 49%
    12:00 +23°C° 0 mm 1 mps 763 mmHg 47%
    13:00 +24°C° 0 mm 1 mps 763 mmHg 44%
    14:00 +23°C° 0 mm 2 mps 763 mmHg 47%
    15:00 +23°C° 0 mm 2 mps 762 mmHg 50%
    16:00 +22°C° 0 mm 3 mps 762 mmHg 53%
    17:00 +20°C° 0 mm 3 mps 762 mmHg 60%
    18:00 +19°C° 0 mm 3 mps 762 mmHg 67%
    19:00 +17°C° 0 mm 3 mps 762 mmHg 73%
    20:00 +17°C° 0 mm 3 mps 762 mmHg 72%
    21:00 +17°C° 0 mm 3 mps 762 mmHg 72%
    22:00 +17°C° 0 mm 3 mps 762 mmHg 71%
    23:00 +17°C° 0 mm 3 mps 762 mmHg 67%
    Show more